Location: Newark
(44.5425°N, 10.7801°E)
Time: 14:39:47
(UTC+00:00)

N. Korean satellite - Pass Details

Date: 29 January 2020
Orbit: 456 x 505 km, 97.2° (Epoch: 29 February)

Event Time Altitude Azimuth Distance (km) Brightness Sun altitude
Rises 05:34:00 0° 5° (N) 2,553 10.1 -11.8°
Reaches altitude 10° 05:36:07 10° 359° (N) 1,677 9.1 -11.5°
Maximum altitude 05:39:33 42° 287° (WNW) 707 6.9 -10.9°
Drops below altitude 10° 05:43:00 10° 216° (SW) 1,688 9.1 -10.3°
Sets 05:45:08 0° 209° (SSW) 2,573 10.1 -9.9°
